Weather History for Chillicothe, MO

Change the Weather History Date:

Wednesday, August 7, 2013

  Actual Average (KIRK) Record (KIRK)
Temperature  
Mean Temperature 80 °F 75 °F  
Max Temperature 91 °F 86 °F 105 °F (1934)
Min Temperature 69 °F 65 °F 49 °F (1989)
Degree Days  
Heating Degree Days 0 0  
Month to date heating degree days 0  
Since 1 June heating degree days 17  
Since 1 July heating degree days 1  
Cooling Degree Days 16 10  
Month to date cooling degree days 71  
Year to date cooling degree days 638  
Since 1 June cooling degree days 576  
Growing Degree Days 30 (Base 50)    
Moisture  
Dew Point 69 °F    
Average Humidity 74    
Maximum Humidity 94    
Minimum Humidity 43    
Precipitation  
Precipitation 0.47 in 0.11 in 3.31 in (1919)
Month to date precipitation 0.77  
Year to date precipitation 24.36  
Sea Level Pressure  
Sea Level Pressure 29.86 in    
Wind  
Wind Speed 2 mph (North)    
Max Wind Speed 9 mph    
Max Gust Speed -    
T = Trace of Precipitation, MM = Missing Value Source: NWS Daily Summary

Daily Weather History Graph

Daily Weather History Graph

Search for Another Location

Airport:

Trip Planner

Search our weather history database for the weather conditions in past years. The results will help you decide how hot, cold, wet, or windy it might be!

Date:

Astronomy

Aug. 07, 2013 Rise Set
Actual Time 6:18 AM CDT 8:20 PM CDT
Civil Twilight 5:49 AM CDT 8:50 PM CDT
Nautical Twilight 5:13 AM CDT 9:26 PM CDT
Astronomical Twilight 4:33 AM CDT 10:05 PM CDT
Moon 7:07 AM CDT (8/7) 8:28 PM CDT (8/7)
Length of Visible Light 15h 00m
Length of Day
14h 01m
New Moon, 1% of the Moon is Illuminated
Aug 7
New Moon
Aug 14
First Quarter
Aug 20
Full
Aug 28
Last Quarter
Sep 5
New

Hourly Weather History & Observations

Time (CDT) Temp. Heat Index Dew Point Humidity Pressure Visibility Wind Dir Wind Speed Gust Speed Precip Events Conditions
12:52 AM 78.1 °F - 73.0 °F 84% 29.81 in - Calm Calm - N/A   Unknown
1:52 AM 75.0 °F - 72.0 °F 90% 29.78 in - Calm Calm - N/A   Unknown
2:52 AM 73.9 °F - 71.1 °F 91% 29.77 in - Calm Calm - N/A   Unknown
3:52 AM 73.0 °F - 71.1 °F 93% 29.79 in - Calm Calm - N/A   Unknown
4:52 AM 75.0 °F - 72.0 °F 90% 29.77 in - Calm Calm - N/A   Unknown
5:52 AM 75.0 °F - 72.0 °F 90% 29.81 in - Calm Calm - N/A   Unknown
6:52 AM 75.0 °F - 73.0 °F 94% 29.82 in - Calm Calm - N/A   Unknown
7:52 AM 75.9 °F - 73.0 °F 91% 29.84 in - West 8.1 mph - 0.06 in   Unknown
8:52 AM 72.0 °F - 69.1 °F 91% 29.87 in - Variable 4.6 mph - 0.41 in   Unknown
9:52 AM 72.0 °F - 68.0 °F 87% 29.88 in - NW 4.6 mph - N/A   Unknown
10:52 AM 77.0 °F - 71.1 °F 82% 29.88 in - Variable 4.6 mph - N/A   Unknown
11:52 AM 80.1 °F 84.5 °F 73.9 °F 81% 29.88 in - South 5.8 mph - N/A   Unknown
12:52 PM 86.0 °F 93.0 °F 73.0 °F 65% 29.85 in - North 6.9 mph - N/A   Unknown
1:52 PM 89.1 °F 97.0 °F 73.0 °F 59% 29.84 in - NNW 5.8 mph - N/A   Unknown
2:52 PM 90.0 °F 95.4 °F 70.0 °F 52% 29.85 in - North 6.9 mph - N/A   Unknown
3:52 PM 90.0 °F 94.5 °F 69.1 °F 50% 29.85 in - North 5.8 mph - N/A   Unknown
4:52 PM 90.0 °F 91.7 °F 64.9 °F 43% 29.85 in - Variable 5.8 mph - N/A   Unknown
5:52 PM 88.0 °F 90.7 °F 66.9 °F 49% 29.86 in - North 9.2 mph - N/A   Unknown
6:52 PM 84.9 °F 86.1 °F 64.0 °F 49% 29.88 in - North 6.9 mph - N/A   Unknown
7:52 PM 81.0 °F 82.5 °F 64.0 °F 56% 29.90 in - Calm Calm - N/A   Unknown
8:52 PM 73.9 °F - 64.9 °F 73% 29.92 in - NNE 3.5 mph - N/A   Unknown
9:52 PM 73.9 °F - 64.0 °F 71% 29.94 in - North 4.6 mph - N/A   Unknown
10:52 PM 71.1 °F - 63.0 °F 75% 29.95 in - Calm Calm - N/A   Unknown
11:52 PM 69.1 °F - 63.0 °F 81% 29.96 in - North 3.5 mph - N/A   Unknown